Temp
22 20 20 20 21 21 21 20 20 20 20 19 19 19 19 19 19 19 19 19 19 18 18 17 17 16 16 16 16 15 15 15
22 20 21 20 20 20 20 20 20 19 19 20 19 20 19 19 19 19 19 19 19 18 18 17 17 16 16 16 15 15 15 15
21 20 20 21 21 21 20 20 20 20 20 20 20 20 19 19 20 19 19 18 18 18 18 18 17 17 16 15 15 15 15 15
22 20 19 22 22 21 21 21 21 21 21 20 19 18 18 18 19 20 19 19 18 18 18 18 18 17 17 16 15 15 15 15
22 21 20 20 22 22 22 21 21 21 20 20 20 21 20 21 21 20 20 19 19 18 18 18 18 17 17 16 16 15 15 15
22 22 21 23 24 23 23 22 21 21 21 20 20 21 21 20 20 20 20 20 20 19 18 18 17 17 17 17 16 15 15 15
22 23 23 23 24 23 23 22 22 22 21 21 21 21 21 20 20 20 20 20 19 19 19 18 18 18 17 17 17 16 15 15
22 22 23 23 23 22 21 22 22 22 22 21 22 22 21 21 21 21 21 20 20 20 20 20 19 18 17 17 17 16 15 15
22 22 23 24 24 24 22 22 22 21 21 22 23 22 21 22 21 21 22 22 22 21 20 20 19 19 18 17 17 16 16 15
21 22 23 24 24 24 24 23 23 22 23 23 22 22 22 22 23 22 22 22 22 22 21 20 20 19 18 17 17 16 16 15
21 22 23 24 24 24 24 24 25 25 24 23 23 23 23 23 22 23 23 23 22 22 22 21 20 19 19 18 17 16 16 15
20 21 21 22 23 24 24 23 24 24 23 22 21 21 22 22 21 23 23 22 23 22 22 22 21 20 19 18 17 16 16 16
17 19 19 19 20 22 23 23 22 23 23 21 22 22 21 20 21 23 23 22 22 23 22 21 21 20 19 18 18 17 16 16
13 15 16 18 19 20 20 21 21 21 20 21 20 21 19 19 21 22 21 22 22 21 21 21 20 20 19 18 17 17 16 16
10 13 13 13 15 16 18 20 19 21 21 21 20 21 20 20 22 21 19 20 19 20 20 20 19 19 19 18 17 17 17 16
9 10 9 10 11 12 14 16 19 19 21 21 22 22 21 20 19 18 18 18 18 19 18 18 18 18 18 18 17 17 16 16
7 8 10 10 10 10 11 13 16 18 19 20 22 22 21 19 18 17 17 17 16 17 17 17 17 17 18 17 18 17 17 16
6 6 8 9 10 9 11 12 13 16 18 17 17 19 19 18 16 15 15 15 15 16 16 16 16 17 18 18 18 17 16 16
6 6 7 8 9 8 10 11 13 14 15 15 15 16 16 17 14 14 14 14 15 15 15 15 16 16 17 18 18 17 15 14
Height
1443 1446 1452 1458 1461 1465 1469 1473 1478 1484 1489 1494 1500 1505 1511 1515 1519 1523 1528 1533 1537 1541 1546 1550 1553 1556 1558 1560 1564 1567 1570 1574
1437 1440 1445 1451 1457 1459 1463 1467 1472 1477 1482 1486 1492 1496 1502 1508 1513 1518 1523 1527 1531 1535 1540 1545 1548 1551 1555 1558 1561 1563 1566 1570
1429 1434 1437 1441 1447 1451 1457 1460 1465 1470 1475 1480 1487 1491 1497 1502 1507 1511 1516 1521 1526 1530 1534 1539 1543 1546 1550 1553 1556 1559 1562 1564
1421 1425 1428 1432 1438 1443 1447 1453 1458 1464 1470 1475 1481 1487 1492 1496 1498 1501 1507 1513 1518 1523 1527 1532 1536 1540 1543 1547 1551 1554 1557 1559
1415 1418 1421 1423 1428 1436 1441 1447 1452 1458 1464 1467 1471 1474 1477 1480 1486 1493 1500 1505 1510 1515 1519 1524 1529 1533 1536 1540 1546 1548 1553 1554
1406 1409 1413 1416 1423 1426 1432 1439 1445 1450 1455 1460 1465 1468 1472 1478 1482 1486 1491 1498 1502 1506 1510 1516 1520 1524 1529 1533 1538 1541 1545 1549
1398 1402 1408 1412 1416 1420 1424 1429 1434 1440 1446 1451 1455 1461 1465 1470 1473 1477 1481 1487 1493 1497 1501 1505 1511 1516 1520 1526 1531 1534 1537 1541
1390 1394 1398 1402 1407 1410 1414 1419 1424 1429 1436 1442 1446 1452 1457 1461 1466 1469 1472 1477 1482 1485 1490 1494 1500 1506 1513 1518 1522 1526 1530 1534
1379 1383 1388 1393 1398 1403 1406 1409 1414 1419 1426 1430 1436 1443 1448 1452 1457 1462 1465 1469 1472 1478 1482 1487 1491 1497 1504 1509 1514 1518 1522 1526
1368 1372 1377 1383 1389 1393 1397 1402 1405 1409 1413 1420 1426 1431 1437 1442 1446 1451 1457 1461 1465 1470 1475 1479 1483 1488 1494 1500 1506 1509 1513 1518
1359 1365 1369 1374 1380 1385 1390 1394 1396 1397 1401 1407 1414 1419 1424 1430 1437 1441 1446 1451 1456 1461 1465 1470 1475 1479 1484 1489 1494 1500 1504 1509
1350 1358 1363 1366 1371 1376 1379 1382 1386 1390 1392 1396 1403 1408 1413 1420 1424 1430 1435 1441 1447 1452 1457 1461 1465 1470 1474 1479 1484 1488 1494 1499
1345 1349 1353 1358 1362 1366 1369 1373 1377 1380 1383 1387 1392 1398 1403 1409 1415 1420 1425 1430 1436 1441 1447 1452 1457 1462 1466 1470 1474 1476 1482 1488
1341 1344 1349 1352 1354 1357 1360 1364 1367 1370 1375 1379 1384 1389 1394 1398 1404 1409 1414 1419 1424 1430 1437 1441 1446 1451 1457 1462 1467 1469 1473 1479
1339 1343 1346 1348 1349 1351 1352 1355 1360 1365 1367 1371 1375 1378 1382 1386 1392 1398 1403 1408 1413 1419 1426 1431 1436 1443 1449 1454 1458 1461 1464 1470
1340 1341 1342 1342 1343 1344 1345 1347 1351 1356 1360 1362 1363 1369 1372 1376 1383 1389 1394 1397 1403 1408 1415 1422 1429 1434 1439 1445 1450 1454 1457 1461
1345 1345 1341 1341 1342 1341 1341 1339 1341 1346 1348 1351 1357 1360 1362 1365 1371 1378 1383 1387 1393 1399 1405 1412 1420 1425 1431 1435 1442 1447 1451 1455
1349 1349 1349 1347 1342 1338 1336 1334 1335 1335 1337 1342 1346 1349 1352 1356 1361 1368 1373 1379 1385 1391 1397 1403 1411 1417 1421 1426 1434 1440 1445 1449
1354 1353 1351 1350 1347 1340 1336 1332 1329 1327 1328 1331 1336 1340 1344 1348 1355 1361 1367 1372 1377 1382 1388 1394 1402 1408 1413 1419 1427 1433 1438 1442
Wind_Speed
43 48 47 48 45 45 43 42 43 45 46 45 44 43 42 41 39 37 35 33 30 28 25 23 21 22 22 23 23 21 18 15
38 49 48 46 46 48 46 44 44 44 46 46 45 45 45 43 41 39 38 36 33 31 28 26 26 25 25 25 24 23 21 17
38 46 50 50 48 49 48 47 45 44 43 43 46 45 45 44 43 43 41 39 37 35 32 30 30 30 29 29 28 26 23 23
40 44 49 52 52 51 49 48 48 46 43 44 46 46 47 47 47 46 45 42 41 38 36 34 33 33 34 32 32 29 27 26
41 45 48 51 52 53 50 48 50 48 47 46 46 47 49 50 49 49 47 45 44 42 40 38 36 36 37 36 33 32 29 29
47 45 51 50 49 54 52 50 50 50 50 49 48 47 45 45 49 48 48 48 47 45 43 41 40 39 38 38 37 35 34 32
46 44 43 52 48 54 55 54 53 53 53 52 52 50 48 47 45 46 45 48 49 49 45 44 42 41 40 40 37 37 37 35
45 43 43 48 52 53 55 56 57 57 55 54 54 54 53 49 45 44 44 46 47 50 48 47 46 45 43 41 40 39 39 39
41 45 46 44 48 52 54 55 56 56 57 58 57 56 57 53 51 49 46 43 42 44 47 47 46 46 46 45 43 42 41 40
43 44 47 49 45 45 50 51 52 54 55 56 59 61 60 59 56 55 52 46 43 41 44 47 46 46 48 47 46 45 44 42
37 41 47 49 50 47 46 47 49 53 53 55 57 61 62 60 61 60 57 52 49 45 42 43 46 46 48 49 48 48 46 46
27 30 35 36 41 44 45 46 48 50 55 55 56 60 61 62 64 63 62 59 55 52 47 44 42 42 46 49 49 49 49 47
13 16 14 16 23 31 37 40 46 50 54 56 57 56 58 62 64 65 64 63 60 57 54 51 46 41 41 45 48 49 50 49
1 1 6 9 12 18 23 28 37 45 50 53 54 54 56 60 63 64 67 66 64 62 57 56 52 46 40 40 44 46 47 46
16 8 8 11 12 16 20 28 31 35 39 47 52 54 55 58 59 61 65 65 65 64 61 59 54 46 40 38 40 42 42 43
30 28 25 23 15 13 17 19 26 32 40 43 43 42 50 56 57 59 60 62 62 62 59 58 53 46 41 38 37 38 38 39
22 27 29 23 29 24 13 15 18 26 40 47 46 47 48 52 54 56 57 59 58 57 55 55 51 46 42 40 36 34 34 36
19 23 28 32 32 32 17 13 11 17 34 45 48 49 50 50 50 51 53 53 52 51 50 49 46 46 42 38 31 32 28 31
20 18 22 27 34 36 24 16 10 11 17 31 39 46 48 45 43 44 45 46 46 46 45 45 43 43 38 32 28 28 28 28
Wind_Direction
236 230 226 224 219 215 213 212 213 215 215 216 219 219 219 220 219 219 217 216 216 217 217 212 214 212 205 201 200 200 203 206
243 232 228 225 223 220 215 212 213 213 215 216 217 218 217 220 223 222 222 219 219 220 222 219 217 219 214 207 205 208 209 206
241 227 229 227 226 224 218 215 216 214 217 219 222 220 220 222 224 224 224 223 223 223 224 225 224 224 220 215 216 217 216 211
241 227 224 229 226 226 223 216 218 217 216 220 222 223 223 223 224 227 225 224 226 226 227 228 230 229 226 221 220 222 220 215
241 231 222 226 228 227 227 222 219 220 218 219 221 223 222 225 226 226 227 226 227 228 231 231 233 233 229 225 224 226 226 224
238 234 227 227 227 228 228 227 224 223 223 223 223 225 228 231 228 228 229 228 230 230 231 233 233 232 230 227 225 226 229 231
233 238 236 231 227 228 230 231 230 226 225 227 228 228 229 229 232 230 229 229 228 231 231 232 232 231 229 227 228 229 230 233
224 229 232 230 226 225 227 230 231 231 229 228 230 232 232 233 235 235 232 230 227 228 228 230 229 231 229 230 231 232 233 235
222 224 233 234 229 228 226 229 232 233 233 231 234 233 234 237 238 237 238 236 234 231 230 228 230 231 231 232 233 235 235 237
225 223 230 237 236 229 226 229 233 236 237 237 235 234 234 235 239 240 241 240 239 237 235 233 231 232 235 235 235 235 237 239
230 227 228 233 240 242 238 237 240 242 241 239 237 236 236 237 236 239 241 242 241 240 240 236 234 234 237 236 236 238 239 242
245 238 233 233 238 241 244 239 238 238 240 239 237 236 236 237 236 239 240 241 242 242 242 242 238 237 238 239 239 240 242 244
246 237 235 234 235 242 244 245 241 241 239 237 238 240 239 236 237 241 241 242 241 242 242 244 243 241 242 242 242 243 243 244
14 127 223 237 230 231 237 243 241 237 235 237 238 238 238 238 240 242 241 242 243 241 241 243 243 242 241 243 243 245 246 246
52 38 341 301 291 263 251 242 242 241 239 239 238 239 239 240 243 243 241 242 242 243 241 242 242 240 242 242 243 243 244 244
41 36 27 12 4 342 283 261 244 236 239 239 238 242 243 242 242 242 242 242 243 244 242 241 242 241 242 242 242 244 244 242
17 19 24 14 15 354 318 299 264 238 232 238 239 239 242 240 240 240 240 241 240 242 243 243 241 241 243 242 243 245 245 242
358 9 17 13 11 7 355 341 309 246 235 236 238 238 237 238 238 236 236 238 239 241 242 242 241 242 244 244 245 244 244 246
2 350 2 5 9 28 21 10 344 310 255 237 235 236 235 234 229 231 236 238 241 241 241 242 240 241 240 241 237 236 240 240